Location: Yoder Observing Site
(32.2942°N, 83.9813°W)
Time: 15:59:12
(UTC-05:00)

ISS - Visible Passes

Search period start: 19 January 2018 00:00
Search period end: 29 January 2018 00:00
Orbit: 402 x 407 km, 51.6° (Epoch: 20 January)

Date Brightness Start Highest point End Pass type
(mag) Time Alt. Az. Time Alt. Az. Time Alt. Az.
19 Jan -0.9 05:23:54 15° SE 05:23:54 15° SE 05:24:35 10° SE visible
21 Jan -0.8 20:09:50 10° SW 20:10:18 13° SW 20:10:18 13° SW visible
22 Jan -2.9 19:17:54 10° SSW 19:20:43 31° SE 19:20:43 31° SE visible
23 Jan -1.8 18:26:47 10° SSE 18:28:39 15° SE 18:30:32 10° E visible
23 Jan -1.7 20:01:51 10° WSW 20:03:44 26° W 20:03:44 26° W visible
24 Jan -3.8 19:09:14 10° SW 19:12:29 80° NW 19:13:59 29° NE visible
25 Jan -1.3 19:54:42 10° WNW 19:56:47 16° NNW 19:56:48 16° NNW visible
26 Jan -2.1 19:01:23 10° W 19:04:15 28° NW 19:06:52 11° NNE visible
28 Jan -1.1 18:54:28 10° WNW 18:56:08 13° NNW 18:57:47 10° N visible
